Location: G�migny
(47.9646°N, 1.6950°E)
Time: 04:24:18
(UTC+00:00)

Cosmos 2151 - Pass Details

Date: 23 October 2019
Orbit: 582 x 600 km, 82.5° (Epoch: 17 November)

Event Time Altitude Azimuth Distance (km) Brightness Sun altitude
Rises 17:55:43 0° 2° (N) 2,862 6.4 -11.5°
Reaches altitude 10° 17:58:26 10° 19° (NNE) 1,955 5.4 -12.0°
Maximum altitude 18:01:41 20° 68° (ENE) 1,397 4.3 -12.5°
Enters shadow 18:02:30 19° 84° (E) 1,439 4.3 -12.7°
